| time (UTC) | temp F | wind direction | speed MPH | gust MPH | rain 1hr in | rain 24hr in | rain mn in | humidity % | barometer mb |
| 20260507093037 | 36 | 242 | 2.0 | 7.0 | 0.00 | 0.00 | 0.00 | 65 | 1020.3 |
| 20260507093025 | 36 | 242 | 1.0 | 7.0 | 0.00 | 0.00 | 0.00 | 66 | 1014.6 |
| 20260507091541 | 36 | 0 | 0.0 | 2.0 | 0.00 | 0.00 | 0.00 | 66 | 1020.2 |
| 20260507091523 | 36 | 243 | 0.0 | 2.0 | 0.00 | 0.00 | 0.00 | 66 | 1014.6 |
| 20260507090042 | 36 | 0 | 0.0 | 3.0 | 0.00 | 0.00 | 0.00 | 66 | 1020.4 |
| 20260507090023 | 36 | 243 | 0.0 | 3.0 | 0.00 | 0.00 | 0.00 | 67 | 1014.6 |
| 20260507084540 | 36 | 0 | 0.0 | 3.0 | 0.00 | 0.00 | 0.00 | 68 | 1020.4 |
| 20260507084520 | 36 | 244 | 0.0 | 3.0 | 0.00 | 0.00 | 0.00 | 68 | 1014.8 |
| 20260507083036 | 36 | 244 | 0.0 | 2.0 | 0.00 | 0.00 | 0.00 | 67 | 1020.4 |
| 20260507083019 | 36 | 244 | 0.0 | 3.0 | 0.00 | 0.00 | 0.00 | 67 | 1014.8 |
| 20260507081539 | 36 | 244 | 0.0 | 2.0 | 0.00 | 0.00 | 0.00 | 65 | 1020.4 |
| 20260507081520 | 36 | 244 | 0.0 | 2.0 | 0.00 | 0.00 | 0.00 | 65 | 1014.8 |
| 20260507080049 | 36 | 0 | 0.0 | 2.0 | 0.00 | 0.00 | 0.00 | 65 | 1020.4 |
| 20260507080017 | 36 | 244 | 0.0 | 2.0 | 0.00 | 0.00 | 0.00 | 66 | 1014.8 |
| 20260507074547 | 36 | 0 | 0.0 | 4.0 | 0.00 | 0.00 | 0.00 | 65 | 1020.6 |
| 20260507074514 | 36 | 244 | 0.0 | 4.0 | 0.00 | 0.00 | 0.00 | 65 | 1015.0 |
| 20260507073036 | 36 | 0 | 0.0 | 3.0 | 0.00 | 0.00 | 0.00 | 65 | 1020.6 |
| 20260507073013 | 36 | 244 | 0.0 | 3.0 | 0.00 | 0.00 | 0.00 | 65 | 1014.9 |
| 20260507071537 | 36 | 0 | 0.0 | 3.0 | 0.00 | 0.00 | 0.00 | 66 | 1020.7 |
| 20260507071512 | 36 | 244 | 0.0 | 1.0 | 0.00 | 0.00 | 0.00 | 67 | 1015.0 |
| 20260507070051 | 36 | 0 | 0.0 | 4.0 | 0.00 | 0.00 | 0.00 | 64 | 1020.8 |
| 20260507070012 | 36 | 244 | 0.0 | 4.0 | 0.00 | 0.00 | 0.00 | 65 | 1015.1 |
| 20260507064547 | 36 | 0 | 0.0 | 2.0 | 0.00 | 0.00 | 0.00 | 64 | 1021.0 |
| 20260507064509 | 36 | 244 | 0.0 | 2.0 | 0.00 | 0.00 | 0.00 | 65 | 1015.3 |
| 20260507063038 | 36 | 0 | 0.0 | 3.0 | 0.00 | 0.00 | 0.00 | 64 | 1021.0 |
| 20260507063006 | 36 | 244 | 0.0 | 3.0 | 0.00 | 0.00 | 0.00 | 65 | 1015.4 |
| 20260507061539 | 37 | 244 | 1.0 | 2.0 | 0.00 | 0.00 | 0.00 | 66 | 1021.2 |
| 20260507061504 | 37 | 244 | 0.0 | 3.0 | 0.00 | 0.00 | 0.00 | 67 | 1015.5 |
| 20260507060036 | 37 | 0 | 0.0 | 1.0 | 0.00 | 0.00 | 0.00 | 63 | 1021.2 |
| 20260507060012 | 37 | 244 | 0.0 | 1.0 | 0.00 | 0.00 | 0.00 | 64 | 1015.6 |
| 20260507054602 | 37 | 244 | 0.0 | 2.0 | 0.00 | 0.00 | 0.00 | 65 | 1015.6 |
| 20260507054543 | 37 | 0 | 0.0 | 2.0 | 0.00 | 0.00 | 0.00 | 64 | 1021.5 |
| 20260507053058 | 37 | 244 | 0.0 | 2.0 | 0.00 | 0.00 | 0.00 | 64 | 1015.9 |
| 20260507053040 | 37 | 0 | 0.0 | 2.0 | 0.00 | 0.00 | 0.00 | 63 | 1021.5 |
| 20260507051556 | 37 | 244 | 0.0 | 2.0 | 0.00 | 0.00 | 0.00 | 64 | 1016.0 |
| 20260507051541 | 37 | 0 | 0.0 | 2.0 | 0.00 | 0.00 | 0.00 | 62 | 1021.7 |
| 20260507050057 | 37 | 244 | 0.0 | 3.0 | 0.00 | 0.00 | 0.00 | 65 | 1016.1 |
| 20260507050039 | 37 | 244 | 0.0 | 3.0 | 0.00 | 0.00 | 0.00 | 63 | 1021.9 |
| 20260507044553 | 37 | 244 | 1.0 | 3.0 | 0.00 | 0.00 | 0.00 | 62 | 1016.1 |
| 20260507044549 | 37 | 0 | 0.0 | 2.0 | 0.00 | 0.00 | 0.00 | 62 | 1021.8 |
| 20260507043053 | 37 | 244 | 0.0 | 3.0 | 0.00 | 0.00 | 0.00 | 62 | 1016.1 |
| 20260507043036 | 37 | 244 | 0.0 | 5.0 | 0.00 | 0.00 | 0.00 | 62 | 1021.9 |
| 20260507041551 | 38 | 244 | 2.0 | 5.0 | 0.00 | 0.00 | 0.00 | 61 | 1016.2 |
| 20260507041546 | 38 | 244 | 1.0 | 5.0 | 0.00 | 0.00 | 0.00 | 61 | 1022.0 |
| 20260507040051 | 38 | 245 | 1.0 | 4.0 | 0.00 | 0.00 | 0.00 | 61 | 1016.4 |
| 20260507040046 | 38 | 245 | 1.0 | 4.0 | 0.00 | 0.00 | 0.00 | 61 | 1022.2 |
| 20260507034551 | 38 | 246 | 0.0 | 4.0 | 0.00 | 0.00 | 0.00 | 62 | 1016.4 |
| 20260507034542 | 38 | 246 | 0.0 | 4.0 | 0.00 | 0.00 | 0.00 | 61 | 1022.2 |
| 20260507033051 | 38 | 238 | 0.0 | 5.0 | 0.00 | 0.00 | 0.00 | 61 | 1016.5 |
| 20260507033049 | 38 | 239 | 0.0 | 5.0 | 0.00 | 0.00 | 0.00 | 61 | 1022.2 |
| 20260507031552 | 38 | 0 | 2.0 | 7.0 | 0.00 | 0.00 | 0.00 | 60 | 1022.2 |
| 20260507031550 | 38 | 239 | 1.0 | 7.0 | 0.00 | 0.00 | 0.00 | 61 | 1016.4 |
| 20260507030108 | 38 | 240 | 2.0 | 7.0 | 0.00 | 0.00 | 0.00 | 59 | 1022.3 |
| 20260507030050 | 38 | 240 | 2.0 | 7.0 | 0.00 | 0.00 | 0.00 | 60 | 1016.5 |
| 20260507024602 | 38 | 236 | 1.0 | 7.0 | 0.00 | 0.00 | 0.00 | 61 | 1016.6 |
| 20260507023048 | 38 | 241 | 1.0 | 7.0 | 0.00 | 0.00 | 0.00 | 61 | 1016.6 |
| 20260507023038 | 38 | 241 | 1.0 | 7.0 | 0.00 | 0.00 | 0.00 | 60 | 1022.4 |
| 20260507021550 | 38 | 0 | 0.0 | 5.0 | 0.00 | 0.00 | 0.00 | 60 | 1022.3 |
| 20260507021548 | 38 | 248 | 0.0 | 5.0 | 0.00 | 0.00 | 0.00 | 60 | 1016.6 |
| 20260507020105 | 38 | 248 | 1.0 | 7.0 | 0.00 | 0.00 | 0.00 | 60 | 1016.5 |
| 20260507020053 | 38 | 0 | 1.0 | 8.0 | 0.00 | 0.00 | 0.00 | 59 | 1022.2 |
| 20260507014555 | 38 | 250 | 1.0 | 8.0 | 0.00 | 0.00 | 0.00 | 59 | 1016.4 |
| 20260507014543 | 38 | 250 | 2.0 | 8.0 | 0.00 | 0.00 | 0.00 | 58 | 1022.2 |
| 20260507013050 | 39 | 238 | 1.0 | 9.0 | 0.00 | 0.00 | 0.00 | 58 | 1016.5 |
| 20260507013040 | 39 | 238 | 2.0 | 9.0 | 0.00 | 0.00 | 0.00 | 57 | 1022.1 |
| 20260507011546 | 39 | 274 | 5.0 | 10.0 | 0.00 | 0.00 | 0.00 | 56 | 1016.5 |
| 20260507011544 | 39 | 255 | 4.0 | 10.0 | 0.00 | 0.00 | 0.00 | 56 | 1022.1 |
| 20260507010046 | 39 | 241 | 4.0 | 11.0 | 0.00 | 0.00 | 0.00 | 56 | 1016.4 |
| 20260507004546 | 40 | 230 | 3.0 | 14.0 | 0.00 | 0.00 | 0.00 | 56 | 1016.4 |
| 20260507004539 | 40 | 231 | 2.0 | 15.0 | 0.00 | 0.00 | 0.00 | 56 | 1021.9 |
| 20260507003044 | 40 | 276 | 2.0 | 9.0 | 0.00 | 0.00 | 0.00 | 58 | 1016.4 |
| 20260507003039 | 40 | 227 | 0.0 | 10.0 | 0.00 | 0.00 | 0.00 | 57 | 1021.9 |
| 20260507001546 | 40 | 267 | 3.0 | 13.0 | 0.00 | 0.00 | 0.00 | 56 | 1016.4 |
| 20260507001542 | 40 | 300 | 5.0 | 13.0 | 0.00 | 0.00 | 0.00 | 54 | 1021.9 |
| 20260507000044 | 40 | 317 | 3.0 | 11.0 | 0.00 | 0.00 | 0.00 | 55 | 1016.4 |
| 20260507000042 | 40 | 317 | 4.0 | 11.0 | 0.00 | 0.00 | 0.00 | 55 | 1021.9 |
| 20260506234552 | 41 | 243 | 4.0 | 14.0 | 0.00 | 0.00 | 0.00 | 53 | 1021.9 |
| 20260506233044 | 41 | 271 | 5.0 | 14.0 | 0.00 | 0.00 | 0.00 | 52 | 1021.9 |
| 20260506231551 | 41 | 281 | 3.0 | 9.0 | 0.00 | 0.00 | 0.00 | 52 | 1016.4 |
| 20260506231541 | 41 | 281 | 2.0 | 11.0 | 0.00 | 0.00 | 0.00 | 51 | 1021.8 |
| 20260506230053 | 41 | 275 | 2.0 | 11.0 | 0.00 | 0.00 | 0.00 | 52 | 1016.4 |
| 20260506230037 | 41 | 274 | 3.0 | 13.0 | 0.00 | 0.00 | 0.00 | 52 | 1021.9 |
| 20260506224542 | 41 | 301 | 5.0 | 10.0 | 0.00 | 0.00 | 0.00 | 51 | 1016.4 |
| 20260506224540 | 41 | 266 | 5.0 | 10.0 | 0.00 | 0.00 | 0.00 | 50 | 1021.9 |
| 20260506223052 | 41 | 269 | 3.0 | 13.0 | 0.00 | 0.00 | 0.00 | 52 | 1016.3 |
| 20260506223041 | 41 | 270 | 3.0 | 13.0 | 0.00 | 0.00 | 0.00 | 51 | 1021.9 |
| 20260506221541 | 41 | 284 | 3.0 | 12.0 | 0.00 | 0.00 | 0.00 | 51 | 1016.2 |
| 20260506221539 | 41 | 286 | 3.0 | 14.0 | 0.00 | 0.00 | 0.00 | 51 | 1021.9 |
| 20260506220041 | 42 | 270 | 5.0 | 14.0 | 0.00 | 0.00 | 0.00 | 51 | 1016.3 |
| 20260506220039 | 42 | 264 | 4.0 | 14.0 | 0.00 | 0.00 | 0.00 | 52 | 1021.8 |
| 20260506214540 | 42 | 355 | 4.0 | 13.0 | 0.00 | 0.00 | 0.00 | 52 | 1016.3 |
| 20260506214535 | 42 | 360 | 4.0 | 13.0 | 0.00 | 0.00 | 0.00 | 51 | 1021.6 |
| 20260506213059 | 42 | 330 | 6.0 | 12.0 | 0.00 | 0.00 | 0.00 | 50 | 1016.2 |
| 20260506213039 | 42 | 308 | 6.0 | 12.0 | 0.00 | 0.00 | 0.00 | 49 | 1021.7 |
| 20260506211549 | 41 | 303 | 3.0 | 11.0 | 0.00 | 0.00 | 0.00 | 51 | 1016.2 |
| 20260506211541 | 41 | 304 | 2.0 | 15.0 | 0.00 | 0.00 | 0.00 | 51 | 1021.8 |
| 20260506210041 | 42 | 290 | 6.0 | 14.0 | 0.00 | 0.00 | 0.00 | 51 | 1021.9 |
| 20260506210037 | 42 | 318 | 6.0 | 13.0 | 0.00 | 0.00 | 0.00 | 51 | 1016.3 |
| 20260506204545 | 42 | 309 | 6.0 | 15.0 | 0.00 | 0.00 | 0.00 | 50 | 1016.3 |
| 20260506204541 | 42 | 231 | 5.0 | 15.0 | 0.00 | 0.00 | 0.00 | 49 | 1021.8 |
| 20260506203040 | 41 | 311 | 8.0 | 17.0 | 0.00 | 0.00 | 0.00 | 50 | 1021.9 |
| 20260506203035 | 41 | 312 | 7.0 | 16.0 | 0.00 | 0.00 | 0.00 | 50 | 1016.3 |
| 20260506201545 | 42 | 271 | 5.0 | 17.0 | 0.00 | 0.00 | 0.00 | 53 | 1016.3 |
| 20260506201540 | 42 | 295 | 5.0 | 17.0 | 0.00 | 0.00 | 0.00 | 52 | 1021.9 |
| 20260506200040 | 42 | 247 | 2.0 | 14.0 | 0.00 | 0.00 | 0.00 | 51 | 1021.9 |
| 20260506200033 | 42 | 247 | 2.0 | 13.0 | 0.00 | 0.00 | 0.00 | 51 | 1016.3 |
| 20260506194541 | 42 | 295 | 9.0 | 19.0 | 0.00 | 0.00 | 0.00 | 48 | 1021.9 |
| 20260506194533 | 42 | 292 | 12.0 | 19.0 | 0.00 | 0.00 | 0.00 | 48 | 1016.4 |
| 20260506193042 | 42 | 313 | 7.0 | 20.0 | 0.00 | 0.00 | 0.00 | 51 | 1021.8 |
| 20260506193036 | 42 | 304 | 6.0 | 19.0 | 0.00 | 0.00 | 0.00 | 51 | 1016.4 |
| 20260506191538 | 42 | 286 | 5.0 | 15.0 | 0.00 | 0.00 | 0.00 | 49 | 1021.7 |
| 20260506191535 | 42 | 269 | 7.0 | 15.0 | 0.00 | 0.00 | 0.00 | 50 | 1016.1 |
| 20260506190040 | 42 | 273 | 6.0 | 16.0 | 0.00 | 0.00 | 0.00 | 49 | 1021.8 |
| 20260506190030 | 42 | 261 | 6.0 | 16.0 | 0.00 | 0.00 | 0.00 | 51 | 1016.3 |
| 20260506184544 | 42 | 259 | 5.0 | 16.0 | 0.00 | 0.00 | 0.00 | 49 | 1021.6 |
| 20260506184529 | 42 | 267 | 5.0 | 16.0 | 0.00 | 0.00 | 0.00 | 49 | 1016.1 |
| 20260506183042 | 42 | 281 | 5.0 | 13.0 | 0.00 | 0.00 | 0.00 | 48 | 1021.7 |
| 20260506183036 | 42 | 281 | 5.0 | 13.0 | 0.00 | 0.00 | 0.00 | 49 | 1016.3 |
| 20260506181540 | 42 | 305 | 8.0 | 16.0 | 0.00 | 0.00 | 0.00 | 47 | 1021.6 |
| 20260506181527 | 42 | 245 | 10.0 | 16.0 | 0.00 | 0.00 | 0.00 | 47 | 1016.2 |
| 20260506180045 | 43 | 284 | 5.0 | 14.0 | 0.00 | 0.00 | 0.00 | 48 | 1021.7 |
| 20260506180027 | 43 | 284 | 5.0 | 12.0 | 0.00 | 0.00 | 0.00 | 49 | 1016.2 |
| 20260506174539 | 42 | 279 | 4.0 | 17.0 | 0.00 | 0.00 | 0.00 | 47 | 1021.7 |
| 20260506174525 | 42 | 279 | 6.0 | 15.0 | 0.00 | 0.00 | 0.00 | 47 | 1016.1 |
| 20260506173057 | 41 | 242 | 5.0 | 16.0 | 0.00 | 0.00 | 0.00 | 50 | 1021.9 |
| 20260506173024 | 41 | 229 | 7.0 | 16.0 | 0.00 | 0.00 | 0.00 | 50 | 1016.5 |
| 20260506171536 | 41 | 310 | 6.0 | 17.0 | 0.00 | 0.00 | 0.00 | 50 | 1021.9 |
| 20260506171526 | 41 | 311 | 5.0 | 17.0 | 0.00 | 0.00 | 0.00 | 50 | 1016.4 |
| 20260506170044 | 41 | 360 | 8.0 | 14.0 | 0.00 | 0.00 | 0.00 | 47 | 1022.0 |
| 20260506170019 | 41 | 313 | 9.0 | 14.0 | 0.00 | 0.00 | 0.00 | 47 | 1016.4 |
| 20260506164541 | 40 | 267 | 5.0 | 15.0 | 0.00 | 0.00 | 0.00 | 49 | 1021.8 |
| 20260506164516 | 40 | 267 | 3.0 | 13.0 | 0.00 | 0.00 | 0.00 | 49 | 1016.3 |
| 20260506163040 | 41 | 317 | 4.0 | 15.0 | 0.00 | 0.00 | 0.00 | 51 | 1022.0 |
| 20260506163016 | 41 | 294 | 3.0 | 15.0 | 0.00 | 0.00 | 0.00 | 52 | 1016.3 |
| 20260506161539 | 40 | 338 | 6.0 | 15.0 | 0.00 | 0.00 | 0.00 | 47 | 1022.3 |
| 20260506161514 | 40 | 343 | 5.0 | 15.0 | 0.00 | 0.00 | 0.00 | 48 | 1016.5 |
| 20260506160037 | 40 | 328 | 5.0 | 14.0 | 0.00 | 0.00 | 0.00 | 53 | 1022.3 |
| 20260506160010 | 39 | 342 | 3.0 | 11.0 | 0.00 | 0.00 | 0.00 | 53 | 1016.6 |
| 20260506154540 | 38 | 321 | 6.0 | 15.0 | 0.00 | 0.00 | 0.00 | 54 | 1022.3 |
| 20260506154509 | 38 | 320 | 6.0 | 15.0 | 0.00 | 0.00 | 0.00 | 55 | 1016.5 |
| 20260506153046 | 38 | 292 | 2.0 | 15.0 | 0.00 | 0.00 | 0.00 | 61 | 1022.3 |
| 20260506153010 | 38 | 309 | 2.0 | 15.0 | 0.00 | 0.00 | 0.00 | 62 | 1016.6 |
| 20260506151541 | 38 | 331 | 5.0 | 13.0 | 0.00 | 0.00 | 0.00 | 57 | 1022.2 |
| 20260506151505 | 38 | 337 | 6.0 | 11.0 | 0.00 | 0.00 | 0.00 | 57 | 1016.4 |
| 20260506150042 | 37 | 0 | 4.0 | 12.0 | 0.00 | 0.00 | 0.00 | 58 | 1022.0 |
| 20260506150003 | 37 | 282 | 3.0 | 12.0 | 0.00 | 0.00 | 0.00 | 59 | 1016.2 |
| 20260506144607 | 37 | 327 | 5.0 | 15.0 | 0.00 | 0.00 | 0.00 | 58 | 1016.1 |
| 20260506144541 | 37 | 313 | 3.0 | 15.0 | 0.00 | 0.00 | 0.00 | 59 | 1022.0 |
| 20260506143103 | 37 | 283 | 6.0 | 12.0 | 0.00 | 0.00 | 0.00 | 58 | 1015.9 |
| 20260506143037 | 37 | 276 | 6.0 | 12.0 | 0.00 | 0.00 | 0.00 | 57 | 1021.9 |
| 20260506141554 | 37 | 290 | 3.0 | 11.0 | 0.00 | 0.00 | 0.00 | 57 | 1015.8 |
| 20260506141540 | 37 | 290 | 5.0 | 11.0 | 0.00 | 0.00 | 0.00 | 57 | 1021.9 |
| 20260506140051 | 36 | 330 | 3.0 | 11.0 | 0.00 | 0.00 | 0.00 | 60 | 1015.8 |
| 20260506140041 | 36 | 331 | 5.0 | 11.0 | 0.00 | 0.00 | 0.00 | 60 | 1021.8 |
| 20260506134549 | 36 | 306 | 4.0 | 12.0 | 0.00 | 0.00 | 0.00 | 59 | 1015.7 |
| 20260506134539 | 36 | 296 | 5.0 | 12.0 | 0.00 | 0.00 | 0.00 | 58 | 1021.8 |
| 20260506133048 | 36 | 322 | 1.0 | 8.0 | 0.00 | 0.00 | 0.00 | 65 | 1015.6 |
| 20260506133046 | 36 | 323 | 2.0 | 8.0 | 0.00 | 0.00 | 0.00 | 62 | 1021.4 |
| 20260506131550 | 36 | 292 | 2.0 | 10.0 | 0.00 | 0.00 | 0.00 | 64 | 1021.4 |
| 20260506131544 | 36 | 298 | 3.0 | 10.0 | 0.00 | 0.00 | 0.00 | 63 | 1015.6 |
| 20260506130054 | 35 | 286 | 2.0 | 8.0 | 0.00 | 0.00 | 0.00 | 65 | 1021.4 |
| 20260506130041 | 35 | 286 | 2.0 | 8.0 | 0.00 | 0.00 | 0.00 | 66 | 1015.5 |
| 20260506124545 | 35 | 290 | 2.0 | 8.0 | 0.00 | 0.00 | 0.00 | 66 | 1021.3 |
| 20260506124538 | 35 | 319 | 3.0 | 9.0 | 0.00 | 0.00 | 0.00 | 66 | 1015.6 |
| 20260506123042 | 34 | 0 | 2.0 | 8.0 | 0.00 | 0.00 | 0.00 | 68 | 1021.3 |
| 20260506123034 | 34 | 266 | 1.0 | 8.0 | 0.00 | 0.00 | 0.00 | 68 | 1015.7 |
| 20260506121539 | 34 | 277 | 1.0 | 8.0 | 0.00 | 0.00 | 0.00 | 68 | 1021.3 |
| 20260506121530 | 34 | 277 | 0.0 | 8.0 | 0.00 | 0.00 | 0.00 | 69 | 1015.6 |
| 20260506120038 | 34 | 329 | 0.0 | 3.0 | 0.00 | 0.00 | 0.00 | 70 | 1015.3 |
| 20260506120036 | 34 | 329 | 0.0 | 3.0 | 0.00 | 0.00 | 0.00 | 69 | 1021.1 |
| 20260506114542 | 33 | 0 | 0.0 | 4.0 | 0.00 | 0.00 | 0.00 | 72 | 1020.8 |
| 20260506114523 | 33 | 329 | 0.0 | 3.0 | 0.00 | 0.00 | 0.00 | 72 | 1015.1 |
| 20260506113050 | 33 | 0 | 0.0 | 4.0 | 0.00 | 0.00 | 0.00 | 71 | 1020.3 |
| 20260506113027 | 33 | 330 | 0.0 | 3.0 | 0.00 | 0.00 | 0.00 | 72 | 1014.6 |
| 20260506111541 | 33 | 0 | 0.0 | 3.0 | 0.00 | 0.00 | 0.00 | 71 | 1020.3 |
| 20260506111516 | 33 | 330 | 0.0 | 3.0 | 0.00 | 0.00 | 0.00 | 72 | 1014.5 |
| 20260506110047 | 33 | 0 | 0.0 | 3.0 | 0.00 | 0.00 | 0.00 | 72 | 1020.2 |
| 20260506110014 | 33 | 330 | 0.0 | 3.0 | 0.00 | 0.00 | 0.00 | 72 | 1014.5 |
| 20260506104543 | 32 | 0 | 0.0 | 3.0 | 0.00 | 0.00 | 0.00 | 73 | 1020.2 |
| 20260506104513 | 32 | 331 | 0.0 | 3.0 | 0.00 | 0.00 | 0.00 | 74 | 1014.5 |
| 20260506103045 | 32 | 331 | 0.0 | 2.0 | 0.00 | 0.00 | 0.00 | 73 | 1020.1 |
| 20260506103012 | 32 | 331 | 0.0 | 2.0 | 0.00 | 0.00 | 0.00 | 73 | 1014.4 |
| 20260506101552 | 33 | 332 | 0.0 | 4.0 | 0.00 | 0.00 | 0.00 | 71 | 1020.1 |
| 20260506101507 | 33 | 332 | 0.0 | 4.0 | 0.00 | 0.00 | 0.00 | 72 | 1014.3 |
| 20260506100059 | 33 | 332 | 0.0 | 3.0 | 0.00 | 0.00 | 0.00 | 71 | 1020.1 |
| 20260506100009 | 33 | 332 | 0.0 | 3.0 | 0.00 | 0.00 | 0.00 | 71 | 1014.3 |
| 20260506094540 | 34 | 0 | 0.0 | 3.0 | 0.00 | 0.00 | 0.00 | 70 | 1020.2 |
| 20260506094506 | 34 | 333 | 0.0 | 3.0 | 0.00 | 0.00 | 0.00 | 71 | 1014.4 |